{"data":{"norad_id":63691,"intl_designator":"2025-086E","name":"HULIANWANG DIGUI-24","alt_names":[],"object_type":"PAYLOAD","status":"ACTIVE","operator":null,"country":"PRC","launch_date":"2025-04-28","launch_site_code":"WSC","launch_vehicle":null,"mission":null,"orbit_class":"UNKNOWN","rcs_meters":null,"size_class":null,"mass_kg":null,"dimensions":null,"purposes":[],"wikipedia_slug":null,"has_3d_model":false,"image_url":null,"decayed_at":null,"tle_current":{"epoch":"2026-09-21T21:58:04.642464Z","epoch_age_seconds":85480,"freshness":"FRESH","line1":"1 63691U 25086E   26264.91533151 -.00000059  00000+0 -17153-3 0  9999","line2":"2 63691  86.5023 280.7202 0001835  77.0376 283.0963 13.24412116 67660","mean_motion":13.24412116,"eccentricity":0.0001835,"inclination_deg":86.5023,"raan_deg":280.7202,"arg_perigee_deg":77.0376,"mean_anomaly_deg":283.0963,"bstar":-0.00017153,"rev_number":6766,"period_min":108.72748615054,"perigee_km":1166.52944773,"apogee_km":1169.2988485014,"semimajor_km":7546.0511481157,"source":"CELESTRAK","updated_at":"2026-09-22T09:00:29.282547Z"}}}